PBD6855 UUEE-ULMM

Flight info

Callsign PBD6855
Flight time 2h 14m
Altitude 37000
Route RILPO3H RILPO T753 DEGOP/K0872F360 T747 MOVIT P65 PELOR PELOR2L
Aircraft B738/M-SDE2E3FGHIRWXY/LB1

Departure

Time 2026-04-23 15:38
Airport Sheremetyevo International Airport (UUEE)

Arrival

Time 2026-04-23 17:52
Airport Emperor Nicholas II Murmansk Airport (ULMM)
Time Latitude Longitude Altitude Speed Heading
2026-04-23 15:17 55.96278 37.39908 638 ft 0 kts 165°
2026-04-23 15:25 55.96282 37.39906 643 ft 2 kts 163°
2026-04-23 15:25 55.96300 37.39894 638 ft 3 kts 148°
2026-04-23 15:25 55.96314 37.39872 638 ft 3 kts 121°
2026-04-23 15:25 55.96320 37.39842 639 ft 3 kts 85°
2026-04-23 15:26 55.96319 37.39825 639 ft 0 kts 75°
2026-04-23 15:29 55.96321 37.39837 639 ft 1 kts 74°
2026-04-23 15:30 55.96328 37.39879 643 ft 5 kts 73°
2026-04-23 15:30 55.96347 37.39966 638 ft 6 kts 52°
2026-04-23 15:30 55.96373 37.40056 642 ft 10 kts 72°
2026-04-23 15:30 55.96398 37.40196 645 ft 11 kts 67°
2026-04-23 15:31 55.96460 37.40236 639 ft 11 kts 351°
2026-04-23 15:31 55.96534 37.40202 643 ft 11 kts 345°
2026-04-23 15:31 55.96614 37.40164 640 ft 13 kts 345°
2026-04-23 15:31 55.96705 37.40134 642 ft 14 kts 14°
2026-04-23 15:32 55.96748 37.40279 640 ft 15 kts 75°
2026-04-23 15:32 55.96776 37.40466 638 ft 17 kts 75°
2026-04-23 15:32 55.96805 37.40665 639 ft 15 kts 75°
2026-04-23 15:32 55.96835 37.40859 640 ft 17 kts 75°
2026-04-23 15:33 55.96868 37.41074 641 ft 19 kts 75°
2026-04-23 15:33 55.96901 37.41300 645 ft 19 kts 75°
2026-04-23 15:33 55.96934 37.41528 638 ft 18 kts 75°
2026-04-23 15:33 55.96968 37.41750 644 ft 19 kts 75°
2026-04-23 15:34 55.96995 37.41930 638 ft 15 kts 75°
2026-04-23 15:34 55.97023 37.42118 638 ft 16 kts 75°
2026-04-23 15:34 55.97028 37.42152 647 ft 2 kts 75°
2026-04-23 15:34 55.97035 37.42199 640 ft 5 kts 75°
2026-04-23 15:35 55.97047 37.42281 644 ft 10 kts 75°
2026-04-23 15:35 55.97073 37.42457 646 ft 19 kts 75°
2026-04-23 15:35 55.97109 37.42690 640 ft 21 kts 75°
2026-04-23 15:35 55.97139 37.42892 639 ft 16 kts 75°
2026-04-23 15:36 55.97178 37.43041 640 ft 10 kts 20°
2026-04-23 15:36 55.97233 37.43033 638 ft 0 kts 347°
2026-04-23 15:37 55.97269 37.43016 643 ft 13 kts 344°
2026-04-23 15:37 55.97353 37.42920 640 ft 14 kts 274°
2026-04-23 15:37 55.97333 37.42762 641 ft 37 kts 255°
2026-04-23 15:37 55.97124 37.41363 639 ft 135 kts 255°
2026-04-23 15:38 55.96835 37.39389 732 ft 187 kts 258°
2026-04-23 15:38 55.96604 37.37859 1279 ft 191 kts 259°
2026-04-23 15:38 55.96244 37.35518 2173 ft 200 kts 262°
2026-04-23 15:38 55.95882 37.33053 2774 ft 216 kts 266°
2026-04-23 15:39 55.96052 37.30456 2977 ft 216 kts 307°
2026-04-23 15:39 55.97176 37.28754 3389 ft 210 kts 344°
2026-04-23 15:39 55.98611 37.28438 3955 ft 210 kts
2026-04-23 15:39 56.00067 37.28800 4515 ft 213 kts 11°
2026-04-23 15:40 56.01557 37.29283 4820 ft 230 kts 11°
2026-04-23 15:40 56.03176 37.29814 5339 ft 241 kts 11°
2026-04-23 15:40 56.04841 37.30349 6074 ft 246 kts 11°
2026-04-23 15:40 56.06549 37.30887 6799 ft 251 kts 11°
2026-04-23 15:41 56.08285 37.31423 7545 ft 255 kts 10°
2026-04-23 15:41 56.10042 37.31961 8318 ft 259 kts 10°
2026-04-23 15:41 56.11842 37.32510 8994 ft 264 kts
2026-04-23 15:41 56.13659 37.33063 9729 ft 268 kts
2026-04-23 15:42 56.15450 37.34011 10394 ft 272 kts 27°
2026-04-23 15:42 56.16956 37.36217 10760 ft 291 kts 49°
2026-04-23 15:42 56.18147 37.39235 11247 ft 302 kts 54°
2026-04-23 15:42 56.19323 37.42394 11913 ft 306 kts 54°
2026-04-23 15:43 56.20519 37.45590 12567 ft 311 kts 54°
2026-04-23 15:43 56.21746 37.48843 13176 ft 318 kts 54°
2026-04-23 15:43 56.22997 37.52147 13440 ft 321 kts 54°
2026-04-23 15:43 56.24260 37.55475 13451 ft 322 kts 54°
2026-04-23 15:44 56.25528 37.58803 13455 ft 322 kts 54°
2026-04-23 15:44 56.26796 37.62127 13456 ft 322 kts 54°
2026-04-23 15:44 56.28060 37.65450 13449 ft 321 kts 54°
2026-04-23 15:44 56.29320 37.68770 13452 ft 321 kts 54°
2026-04-23 15:45 56.30601 37.72066 13435 ft 321 kts 51°
2026-04-23 15:45 56.32012 37.75174 13458 ft 320 kts 48°
2026-04-23 15:45 56.33468 37.78212 13460 ft 320 kts 48°
2026-04-23 15:45 56.34916 37.81258 13446 ft 321 kts 49°
2026-04-23 15:46 56.36358 37.84337 13458 ft 321 kts 49°
2026-04-23 15:46 56.37774 37.87377 13440 ft 321 kts 47°
2026-04-23 15:46 56.39499 37.89880 13448 ft 319 kts 26°
2026-04-23 15:46 56.41658 37.91064 13464 ft 337 kts
2026-04-23 15:47 56.44072 37.91459 13468 ft 357 kts
2026-04-23 15:47 56.46568 37.91751 13460 ft 361 kts
2026-04-23 15:47 56.49070 37.92031 13443 ft 359 kts
2026-04-23 15:47 56.51562 37.92327 13450 ft 358 kts
2026-04-23 15:48 56.54046 37.92642 13445 ft 358 kts
2026-04-23 15:48 56.56527 37.92970 13450 ft 357 kts
2026-04-23 15:48 56.59004 37.93305 13452 ft 357 kts
2026-04-23 15:48 56.61485 37.93644 13466 ft 359 kts
2026-04-23 15:49 56.63985 37.93986 13474 ft 361 kts
2026-04-23 15:49 56.66497 37.94371 13463 ft 364 kts
2026-04-23 15:49 56.68916 37.95641 13473 ft 362 kts 24°
2026-04-23 15:49 56.71070 37.97979 13458 ft 361 kts 38°
2026-04-23 15:50 56.72905 38.01106 13481 ft 361 kts 44°
2026-04-23 15:50 56.74678 38.04354 13452 ft 362 kts 45°
2026-04-23 15:50 56.76425 38.07569 13463 ft 362 kts 45°
2026-04-23 15:50 56.78207 38.10827 13466 ft 363 kts 44°
2026-04-23 15:51 56.79999 38.14081 13475 ft 365 kts 44°
2026-04-23 15:51 56.81822 38.17376 13809 ft 371 kts 44°
2026-04-23 15:51 56.83667 38.20707 14418 ft 374 kts 44°
2026-04-23 15:51 56.85526 38.24065 14997 ft 378 kts 45°
2026-04-23 15:52 56.87414 38.27458 15471 ft 385 kts 43°
2026-04-23 15:52 56.89411 38.30751 16045 ft 388 kts 41°
2026-04-23 15:52 56.91481 38.33984 16484 ft 395 kts 40°
2026-04-23 15:52 56.93599 38.37240 17085 ft 397 kts 40°
2026-04-23 15:53 56.95725 38.40508 17638 ft 402 kts 40°
2026-04-23 15:53 56.97881 38.43841 18034 ft 408 kts 40°
2026-04-23 15:53 57.00054 38.47225 18528 ft 411 kts 41°
2026-04-23 15:53 57.02232 38.50634 19067 ft 413 kts 41°
2026-04-23 15:54 57.04428 38.54086 19465 ft 418 kts 41°
2026-04-23 15:54 57.06645 38.57583 19924 ft 422 kts 41°
2026-04-23 15:54 57.08876 38.61110 20407 ft 424 kts 41°
2026-04-23 15:54 57.11122 38.64667 20826 ft 429 kts 41°
2026-04-23 15:55 57.13391 38.68266 21207 ft 433 kts 41°
2026-04-23 15:55 57.15679 38.71903 21630 ft 437 kts 41°
2026-04-23 15:55 57.17992 38.75583 22041 ft 440 kts 41°
2026-04-23 15:55 57.20318 38.79292 22443 ft 444 kts 41°
2026-04-23 15:56 57.22663 38.83037 22827 ft 448 kts 41°
2026-04-23 15:56 57.24997 38.86769 23164 ft 451 kts 41°
2026-04-23 15:56 57.27375 38.90580 23526 ft 453 kts 41°
2026-04-23 15:56 57.29761 38.94409 23922 ft 454 kts 41°
2026-04-23 15:57 57.32146 38.98245 24304 ft 455 kts 41°
2026-04-23 15:57 57.34541 39.02105 24645 ft 457 kts 41°
2026-04-23 15:57 57.36944 39.05982 24976 ft 459 kts 41°
2026-04-23 15:57 57.39360 39.09889 25305 ft 461 kts 41°
2026-04-23 15:58 57.41782 39.13813 25630 ft 463 kts 41°
2026-04-23 15:58 57.44210 39.17752 25967 ft 464 kts 41°
2026-04-23 15:58 57.46645 39.21711 26290 ft 465 kts 41°
2026-04-23 15:58 57.49086 39.25686 26595 ft 467 kts 41°
2026-04-23 15:59 57.51509 39.29633 26863 ft 470 kts 41°
2026-04-23 15:59 57.53979 39.33662 27144 ft 471 kts 41°
2026-04-23 15:59 57.56449 39.37697 27419 ft 473 kts 41°
2026-04-23 15:59 57.58927 39.41752 27694 ft 475 kts 41°
2026-04-23 16:00 57.61415 39.45833 27938 ft 477 kts 41°
2026-04-23 16:00 57.63915 39.49942 28224 ft 478 kts 41°
2026-04-23 16:00 57.66412 39.54054 28595 ft 478 kts 41°
2026-04-23 16:00 57.68895 39.58151 29102 ft 474 kts 41°
2026-04-23 16:01 57.71360 39.62226 29521 ft 472 kts 40°
2026-04-23 16:01 57.73816 39.66294 29829 ft 471 kts 41°
2026-04-23 16:01 57.76271 39.70368 30091 ft 471 kts 41°
2026-04-23 16:01 57.78727 39.74450 30357 ft 471 kts 40°
2026-04-23 16:02 57.81178 39.78532 30621 ft 471 kts 41°
2026-04-23 16:02 57.83644 39.82583 30885 ft 471 kts 37°
2026-04-23 16:02 57.86472 39.85597 31071 ft 469 kts 18°
2026-04-23 16:02 57.89585 39.86978 31382 ft 464 kts
2026-04-23 16:03 57.92785 39.86839 31706 ft 459 kts 349°
2026-04-23 16:03 57.95913 39.85749 32021 ft 457 kts 347°
2026-04-23 16:03 57.99027 39.84512 32249 ft 457 kts 347°
2026-04-23 16:03 58.02131 39.83250 32507 ft 457 kts 347°
2026-04-23 16:04 58.05236 39.82011 32782 ft 456 kts 347°
2026-04-23 16:04 58.08343 39.80805 33066 ft 455 kts 348°
2026-04-23 16:04 58.11441 39.79630 33342 ft 454 kts 348°
2026-04-23 16:04 58.14532 39.78474 33601 ft 452 kts 348°
2026-04-23 16:05 58.16573 39.77712 33744 ft 452 kts 348°
2026-04-23 16:05 58.20703 39.76169 34013 ft 451 kts 348°
2026-04-23 16:05 58.23784 39.75015 34201 ft 451 kts 348°
2026-04-23 16:05 58.26862 39.73857 34379 ft 450 kts 348°
2026-04-23 16:06 58.29930 39.72701 34452 ft 449 kts 348°
2026-04-23 16:06 58.36059 39.70383 34490 ft 449 kts 348°
2026-04-23 16:07 58.42199 39.68033 34511 ft 452 kts 348°
2026-04-23 16:07 58.48377 39.65658 34509 ft 454 kts 348°
2026-04-23 16:08 58.54597 39.63260 34512 ft 457 kts 348°
2026-04-23 16:08 58.60788 39.60866 34503 ft 457 kts 348°
2026-04-23 16:09 58.67019 39.58448 34522 ft 457 kts 348°
2026-04-23 16:09 58.73236 39.56050 34500 ft 454 kts 350°
2026-04-23 16:10 58.79476 39.54863 34511 ft 447 kts 355°
2026-04-23 16:10 58.85642 39.53940 34506 ft 441 kts 354°
2026-04-23 16:11 58.91750 39.52940 34528 ft 442 kts 354°
2026-04-23 16:11 58.97920 39.51917 34528 ft 447 kts 354°
2026-04-23 16:12 59.04150 39.50885 34529 ft 452 kts 354°
2026-04-23 16:12 59.10445 39.49841 34536 ft 455 kts 354°
2026-04-23 16:13 59.16763 39.48790 34526 ft 456 kts 354°
2026-04-23 16:13 59.26223 39.47201 34527 ft 453 kts 354°
2026-04-23 16:14 59.32473 39.46144 34520 ft 448 kts 354°
2026-04-23 16:14 59.38651 39.45097 34521 ft 443 kts 354°
2026-04-23 16:15 59.44736 39.44062 34536 ft 441 kts 354°
2026-04-23 16:15 59.50873 39.43013 34549 ft 445 kts 354°
2026-04-23 16:16 59.57082 39.41949 34548 ft 451 kts 354°
2026-04-23 16:16 59.63353 39.40870 34546 ft 454 kts 354°
2026-04-23 16:17 59.69660 39.39781 34539 ft 454 kts 354°
2026-04-23 16:17 59.75923 39.38697 34536 ft 448 kts 354°
2026-04-23 16:18 59.82048 39.37086 34541 ft 442 kts 343°
2026-04-23 16:18 59.87877 39.33267 34550 ft 440 kts 341°
2026-04-23 16:19 59.93698 39.29451 34553 ft 440 kts 342°
2026-04-23 16:19 59.99496 39.25709 34561 ft 441 kts 342°
2026-04-23 16:20 60.05347 39.21916 34559 ft 443 kts 342°
2026-04-23 16:20 60.11217 39.18093 34565 ft 444 kts 342°
2026-04-23 16:21 60.17103 39.14242 34564 ft 446 kts 342°
2026-04-23 16:21 60.23020 39.10357 34567 ft 447 kts 342°
2026-04-23 16:22 60.28943 39.06453 34563 ft 448 kts 342°
2026-04-23 16:22 60.34877 39.02526 34567 ft 449 kts 342°
2026-04-23 16:23 60.40811 38.98585 34568 ft 449 kts 342°
2026-04-23 16:23 60.46742 38.94630 34569 ft 448 kts 342°
2026-04-23 16:24 60.52652 38.90674 34572 ft 447 kts 342°
2026-04-23 16:24 60.58287 38.86889 34571 ft 446 kts 341°
2026-04-23 16:25 60.64124 38.82948 34576 ft 444 kts 341°
2026-04-23 16:25 60.69988 38.78966 34577 ft 443 kts 341°
2026-04-23 16:26 60.75833 38.74980 34581 ft 442 kts 341°
2026-04-23 16:26 60.80685 38.71660 34586 ft 441 kts 341°
2026-04-23 16:27 60.86508 38.67664 34583 ft 441 kts 341°
2026-04-23 16:27 60.92323 38.63656 34586 ft 440 kts 341°
2026-04-23 16:28 60.98135 38.59636 34592 ft 440 kts 341°
2026-04-23 16:28 61.03945 38.55602 34589 ft 440 kts 341°
2026-04-23 16:29 61.09717 38.51597 34595 ft 441 kts 341°
2026-04-23 16:29 61.15534 38.47552 34598 ft 441 kts 341°
2026-04-23 16:30 61.21352 38.43489 34600 ft 441 kts 341°
2026-04-23 16:30 61.27257 38.39936 34608 ft 441 kts 347°
2026-04-23 16:31 61.33257 38.37226 34601 ft 441 kts 348°
2026-04-23 16:31 61.39238 38.34568 34610 ft 441 kts 347°
2026-04-23 16:32 61.45243 38.31815 34615 ft 441 kts 347°
2026-04-23 16:32 61.51243 38.29014 34613 ft 441 kts 347°
2026-04-23 16:33 61.57240 38.26195 34605 ft 441 kts 347°
2026-04-23 16:33 61.63191 38.23389 34609 ft 440 kts 347°
2026-04-23 16:34 61.69178 38.20556 34604 ft 440 kts 347°
2026-04-23 16:34 61.75118 38.17735 34608 ft 439 kts 347°
2026-04-23 16:35 61.81090 38.14887 34615 ft 439 kts 347°
2026-04-23 16:35 61.87064 38.12026 34617 ft 439 kts 347°
2026-04-23 16:36 61.93026 38.09161 34619 ft 439 kts 347°
2026-04-23 16:36 61.98983 38.06253 34623 ft 439 kts 346°
2026-04-23 16:37 62.04896 38.03305 34625 ft 439 kts 346°
2026-04-23 16:37 62.10853 38.00323 34622 ft 439 kts 346°
2026-04-23 16:38 62.16809 37.97335 34624 ft 439 kts 346°
2026-04-23 16:38 62.22759 37.94341 34621 ft 439 kts 346°
2026-04-23 16:39 62.28677 37.91352 34623 ft 439 kts 346°
2026-04-23 16:39 62.34632 37.88332 34624 ft 439 kts 346°
2026-04-23 16:40 62.40586 37.85299 34627 ft 439 kts 346°
2026-04-23 16:40 62.46494 37.82278 34625 ft 439 kts 346°
2026-04-23 16:41 62.52440 37.79225 34627 ft 439 kts 346°
2026-04-23 16:41 62.58388 37.76159 34626 ft 439 kts 346°
2026-04-23 16:42 62.64326 37.73073 34626 ft 438 kts 345°
2026-04-23 16:42 62.70156 37.69460 34635 ft 438 kts 343°
2026-04-23 16:43 62.75992 37.65546 34633 ft 438 kts 343°
2026-04-23 16:43 62.81829 37.61656 34632 ft 438 kts 343°
2026-04-23 16:44 62.87665 37.57804 34632 ft 438 kts 343°
2026-04-23 16:44 62.93474 37.53971 34631 ft 438 kts 343°
2026-04-23 16:45 62.99317 37.50100 34628 ft 438 kts 343°
2026-04-23 16:45 63.05146 37.46221 34632 ft 438 kts 343°
2026-04-23 16:46 63.10976 37.42324 34634 ft 437 kts 343°
2026-04-23 16:46 63.16774 37.38432 34633 ft 437 kts 343°
2026-04-23 16:47 63.22606 37.34501 34636 ft 437 kts 343°
2026-04-23 16:47 63.28429 37.30524 34629 ft 437 kts 342°
2026-04-23 16:48 63.34195 37.26351 34623 ft 433 kts 343°
2026-04-23 16:49 63.45954 37.17654 34636 ft 426 kts 342°
2026-04-23 16:49 63.51534 37.13229 34635 ft 425 kts 342°
2026-04-23 16:50 63.57105 37.08802 34629 ft 424 kts 342°
2026-04-23 16:50 63.62671 37.04387 34629 ft 424 kts 342°
2026-04-23 16:51 63.67301 37.00708 34628 ft 425 kts 342°
2026-04-23 16:51 63.73786 36.95536 34629 ft 425 kts 342°
2026-04-23 16:52 63.78461 36.91790 34626 ft 426 kts 342°
2026-04-23 16:52 63.84041 36.87302 34629 ft 426 kts 342°
2026-04-23 16:53 63.89593 36.82819 34623 ft 427 kts 342°
2026-04-23 16:53 63.95184 36.78283 34626 ft 427 kts 341°
2026-04-23 16:54 64.00780 36.73722 34623 ft 427 kts 341°
2026-04-23 16:54 64.06381 36.69138 34622 ft 427 kts 341°
2026-04-23 16:55 64.11981 36.64534 34625 ft 428 kts 341°
2026-04-23 16:55 64.17580 36.59912 34623 ft 428 kts 341°
2026-04-23 16:56 64.23181 36.55267 34623 ft 428 kts 341°
2026-04-23 16:56 64.28779 36.50606 34624 ft 428 kts 341°
2026-04-23 16:57 64.34378 36.45926 34623 ft 427 kts 341°
2026-04-23 16:57 64.39965 36.41246 34620 ft 427 kts 341°
2026-04-23 16:58 64.45508 36.36594 34624 ft 426 kts 341°
2026-04-23 16:58 64.51082 36.31894 34616 ft 426 kts 341°
2026-04-23 16:59 64.56641 36.27185 34617 ft 425 kts 341°
2026-04-23 16:59 64.62190 36.22464 34616 ft 424 kts 341°
2026-04-23 17:00 64.67533 36.16578 34623 ft 425 kts 334°
2026-04-23 17:00 64.72770 36.10170 34613 ft 424 kts 334°
2026-04-23 17:01 64.78011 36.03818 34610 ft 424 kts 334°
2026-04-23 17:01 64.83251 35.97474 34609 ft 423 kts 334°
2026-04-23 17:02 64.88470 35.91074 34609 ft 423 kts 334°
2026-04-23 17:02 64.93658 35.84678 34607 ft 423 kts 334°
2026-04-23 17:03 64.98874 35.78227 34608 ft 423 kts 334°
2026-04-23 17:03 65.04062 35.71627 34607 ft 424 kts 331°
2026-04-23 17:04 65.09048 35.64103 34604 ft 425 kts 329°
2026-04-23 17:04 65.13994 35.56411 34606 ft 425 kts 329°
2026-04-23 17:05 65.18961 35.48773 34606 ft 425 kts 329°
2026-04-23 17:05 65.23930 35.41137 34603 ft 425 kts 329°
2026-04-23 17:06 65.28909 35.33512 34620 ft 426 kts 330°
2026-04-23 17:06 65.33911 35.25840 34611 ft 428 kts 330°
2026-04-23 17:07 65.38924 35.18110 34599 ft 429 kts 330°
2026-04-23 17:07 65.43945 35.10327 34597 ft 430 kts 330°
2026-04-23 17:08 65.48936 35.02553 34597 ft 430 kts 330°
2026-04-23 17:08 65.53959 34.94692 34598 ft 431 kts 330°
2026-04-23 17:09 65.58982 34.86794 34594 ft 430 kts 330°
2026-04-23 17:09 65.63990 34.78883 34590 ft 430 kts 330°
2026-04-23 17:10 65.68986 34.70954 34592 ft 429 kts 330°
2026-04-23 17:10 65.73969 34.63008 34590 ft 427 kts 330°
2026-04-23 17:11 65.78928 34.55063 34593 ft 426 kts 330°
2026-04-23 17:11 65.83872 34.47107 34589 ft 425 kts 330°
2026-04-23 17:12 65.88794 34.39148 34593 ft 424 kts 330°
2026-04-23 17:12 65.93698 34.31182 34588 ft 422 kts 330°
2026-04-23 17:13 65.98588 34.23202 34587 ft 421 kts 330°
2026-04-23 17:13 66.03458 34.15215 34585 ft 421 kts 330°
2026-04-23 17:14 66.08263 34.07100 34590 ft 421 kts 329°
2026-04-23 17:14 66.13068 33.98860 34589 ft 421 kts 329°
2026-04-23 17:15 66.17874 33.90603 34592 ft 420 kts 329°
2026-04-23 17:15 66.22673 33.82336 34588 ft 420 kts 329°
2026-04-23 17:16 66.27474 33.74029 34591 ft 420 kts 329°
2026-04-23 17:16 66.32274 33.65688 34585 ft 420 kts 329°
2026-04-23 17:17 66.37171 33.57841 34583 ft 416 kts 337°
2026-04-23 17:17 66.42573 33.53021 34594 ft 411 kts 346°
2026-04-23 17:18 66.50861 33.47378 34583 ft 411 kts 347°
2026-04-23 17:19 66.56382 33.43554 34578 ft 411 kts 346°
2026-04-23 17:19 66.61890 33.39681 34583 ft 411 kts 346°
2026-04-23 17:20 66.67358 33.35807 34576 ft 411 kts 346°
2026-04-23 17:21 66.78357 33.27955 34573 ft 410 kts 346°
2026-04-23 17:21 66.86599 33.22025 34575 ft 410 kts 346°
2026-04-23 17:22 66.94828 33.16062 34577 ft 409 kts 346°
2026-04-23 17:23 67.03053 33.10061 34562 ft 410 kts 346°
2026-04-23 17:24 67.11233 33.04050 34565 ft 409 kts 346°
2026-04-23 17:24 67.13981 33.02022 34335 ft 413 kts 346°
2026-04-23 17:24 67.19441 32.97974 33593 ft 404 kts 346°
2026-04-23 17:25 67.24793 32.93988 32654 ft 396 kts 346°
2026-04-23 17:25 67.27424 32.92022 32212 ft 391 kts 346°
2026-04-23 17:26 67.32595 32.88146 31362 ft 382 kts 346°
2026-04-23 17:26 67.37646 32.84344 30542 ft 374 kts 346°
2026-04-23 17:27 67.42592 32.80607 29742 ft 366 kts 346°
2026-04-23 17:27 67.45027 32.78760 29277 ft 363 kts 346°
2026-04-23 17:27 67.47436 32.76996 28957 ft 354 kts 347°
2026-04-23 17:27 67.49790 32.75363 28657 ft 347 kts 347°
2026-04-23 17:28 67.52102 32.73786 28299 ft 341 kts 347°
2026-04-23 17:28 67.54377 32.72234 27922 ft 336 kts 347°
2026-04-23 17:28 67.56623 32.70696 27533 ft 331 kts 347°
2026-04-23 17:28 67.58810 32.69191 27150 ft 327 kts 347°
2026-04-23 17:29 67.61002 32.67674 26758 ft 324 kts 347°
2026-04-23 17:29 67.63165 32.66172 26384 ft 320 kts 347°
2026-04-23 17:29 67.67423 32.63201 25621 ft 313 kts 347°
2026-04-23 17:30 67.68843 32.62208 25395 ft 311 kts 347°
2026-04-23 17:30 67.73657 32.58829 24529 ft 305 kts 347°
2026-04-23 17:30 67.75697 32.57393 24174 ft 302 kts 347°
2026-04-23 17:31 67.77714 32.55970 23825 ft 299 kts 347°
2026-04-23 17:31 67.79718 32.54553 23479 ft 297 kts 347°
2026-04-23 17:31 67.81705 32.53147 23130 ft 295 kts 347°
2026-04-23 17:31 67.83680 32.51746 22711 ft 292 kts 347°
2026-04-23 17:32 67.85631 32.50360 22355 ft 289 kts 346°
2026-04-23 17:32 67.87556 32.48990 22028 ft 284 kts 346°
2026-04-23 17:32 67.89427 32.47656 21690 ft 281 kts 346°
2026-04-23 17:32 67.91313 32.46311 21361 ft 280 kts 346°
2026-04-23 17:33 67.93218 32.44949 21019 ft 280 kts 346°
2026-04-23 17:33 67.95129 32.43581 20681 ft 290 kts 346°
2026-04-23 17:33 67.97113 32.42159 20315 ft 299 kts 346°
2026-04-23 17:33 67.99089 32.40629 19894 ft 300 kts 343°
2026-04-23 17:34 68.01059 32.38796 19482 ft 299 kts 341°
2026-04-23 17:34 68.03000 32.36885 19108 ft 297 kts 340°
2026-04-23 17:34 68.06835 32.33070 18436 ft 292 kts 340°
2026-04-23 17:35 68.08741 32.31182 18088 ft 291 kts 340°
2026-04-23 17:35 68.11913 32.28048 17487 ft 288 kts 340°
2026-04-23 17:35 68.14390 32.25604 17043 ft 285 kts 340°
2026-04-23 17:36 68.16245 32.23773 16699 ft 283 kts 340°
2026-04-23 17:36 68.18088 32.21953 16379 ft 281 kts 340°
2026-04-23 17:36 68.19924 32.20137 16031 ft 280 kts 340°
2026-04-23 17:36 68.21741 32.18337 15719 ft 278 kts 340°
2026-04-23 17:37 68.23551 32.16543 15402 ft 276 kts 340°
2026-04-23 17:37 68.25354 32.14752 15063 ft 275 kts 340°
2026-04-23 17:37 68.28929 32.11192 14428 ft 273 kts 339°
2026-04-23 17:38 68.30714 32.09411 14100 ft 273 kts 339°
2026-04-23 17:38 68.32494 32.07631 13784 ft 272 kts 339°
2026-04-23 17:38 68.34268 32.05854 13464 ft 272 kts 339°
2026-04-23 17:38 68.36038 32.04079 13118 ft 271 kts 339°
2026-04-23 17:39 68.37806 32.02302 12785 ft 270 kts 339°
2026-04-23 17:39 68.39541 32.00556 12460 ft 269 kts 339°
2026-04-23 17:39 68.41298 31.98785 12062 ft 270 kts 339°
2026-04-23 17:39 68.43056 31.97010 11726 ft 270 kts 339°
2026-04-23 17:40 68.44813 31.95232 11396 ft 269 kts 339°
2026-04-23 17:40 68.46565 31.93458 11078 ft 268 kts 339°
2026-04-23 17:40 68.48307 31.91691 10759 ft 267 kts 339°
2026-04-23 17:40 68.50042 31.89929 10444 ft 266 kts 339°
2026-04-23 17:41 68.51777 31.88162 10114 ft 266 kts 339°
2026-04-23 17:41 68.55182 31.84688 9795 ft 254 kts 339°
2026-04-23 17:41 68.56881 31.83719 9661 ft 249 kts 360°
2026-04-23 17:42 68.59547 31.86496 9395 ft 258 kts 35°
2026-04-23 17:42 68.60671 31.90408 9137 ft 268 kts 59°
2026-04-23 17:42 68.61149 31.97102 8777 ft 277 kts 89°
2026-04-23 17:43 68.61050 32.00657 8601 ft 277 kts 92°
2026-04-23 17:43 68.60858 32.05936 8288 ft 280 kts 92°
2026-04-23 17:43 68.60670 32.11347 7713 ft 293 kts 92°
2026-04-23 17:43 68.60481 32.16939 7335 ft 296 kts 91°
2026-04-23 17:44 68.60292 32.22563 7005 ft 297 kts 91°
2026-04-23 17:44 68.60105 32.28139 6701 ft 298 kts 91°
2026-04-23 17:44 68.59730 32.39340 6097 ft 291 kts 91°
2026-04-23 17:45 68.59545 32.44789 5795 ft 285 kts 91°
2026-04-23 17:45 68.59186 32.55386 5234 ft 275 kts 90°
2026-04-23 17:45 68.59008 32.60596 4970 ft 274 kts 90°
2026-04-23 17:46 68.58646 32.70950 4612 ft 271 kts 90°
2026-04-23 17:46 68.58502 32.76059 4600 ft 266 kts 81°
2026-04-23 17:46 68.58970 32.80795 4445 ft 255 kts 54°
2026-04-23 17:47 68.59917 32.84848 4132 ft 251 kts 48°
2026-04-23 17:47 68.60865 32.88683 4009 ft 234 kts 48°
2026-04-23 17:47 68.62549 32.95542 3698 ft 198 kts 46°
2026-04-23 17:48 68.63446 32.97913 3455 ft 165 kts 17°
2026-04-23 17:48 68.64509 32.98577 3070 ft 150 kts 353°
2026-04-23 17:48 68.65483 32.97943 2856 ft 144 kts 327°
2026-04-23 17:48 68.66352 32.96655 2689 ft 141 kts 333°
2026-04-23 17:49 68.67205 32.95388 2623 ft 139 kts 327°
2026-04-23 17:49 68.67995 32.93987 2576 ft 133 kts 325°
2026-04-23 17:49 68.68752 32.92599 2424 ft 130 kts 325°
2026-04-23 17:49 68.69492 32.91230 2247 ft 127 kts 324°
2026-04-23 17:50 68.70230 32.89860 2072 ft 129 kts 324°
2026-04-23 17:50 68.71726 32.87073 1649 ft 129 kts 324°
2026-04-23 17:50 68.72483 32.85731 1490 ft 129 kts 325°
2026-04-23 17:51 68.73236 32.84326 1244 ft 136 kts 323°
2026-04-23 17:51 68.74019 32.82834 1090 ft 136 kts 324°
2026-04-23 17:51 68.75675 32.79765 670 ft 147 kts 326°
2026-04-23 17:52 68.76535 32.78169 450 ft 150 kts 326°
2026-04-23 17:52 68.78152 32.75173 251 ft 114 kts 326°
2026-04-23 17:52 68.78575 32.74404 253 ft 15 kts 339°
2026-04-23 17:53 68.78596 32.74348 254 ft 2 kts 197°
2026-04-23 17:53 68.78567 32.74393 253 ft 10 kts 144°
2026-04-23 17:53 68.78485 32.74553 253 ft 19 kts 145°
2026-04-23 17:54 68.78355 32.74792 254 ft 25 kts 142°
2026-04-23 17:54 68.78326 32.75084 253 ft 14 kts 66°
2026-04-23 17:54 68.78365 32.75259 253 ft 3 kts 57°
2026-04-23 17:55 68.78387 32.75351 253 ft 3 kts 57°
2026-04-23 17:55 68.78410 32.75449 253 ft 11 kts 57°
2026-04-23 17:55 68.78469 32.75517 253 ft 11 kts 335°
2026-04-23 17:56 68.78514 32.75502 253 ft 5 kts 45°
2026-04-23 17:56 68.78515 32.75583 253 ft 2 kts 127°
2026-04-23 17:56 68.78510 32.75593 253 ft 0 kts 142°
2026-04-23 17:57 68.78510 32.75597 253 ft 0 kts 146°